Location: Borea
(45.6167°N, 23.0167°E)
Time: 13:11:14
(UTC+00:00)

CZ-6A DEB - Visible Passes

Search period start: 23 February 2024 00:00
Search period end: 04 March 2024 00:00
Orbit: 658 x 867 km, 98.9° (Epoch: 21 February)

Date Brightness Start Highest point End Pass type
(mag) Time Alt. Az. Time Alt. Az. Time Alt. Az.
23 Feb ? 18:08:00 10° SSW 18:12:05 34° W 18:16:17 10° NNW visible
24 Feb ? 17:29:53 10° SSE 17:34:23 81° WSW 17:39:02 10° NNW visible
25 Feb ? 16:52:37 10° SE 16:56:53 44° ENE 17:01:18 10° N visible
25 Feb ? 18:32:39 10° SW 18:36:02 21° W 18:39:30 10° NW visible
26 Feb ? 17:53:49 10° S 17:58:09 47° W 18:02:40 10° NNW visible
27 Feb ? 17:15:59 10° SSE 17:20:29 74° ENE 17:25:11 10° N visible
27 Feb ? 18:58:08 10° WSW 19:00:01 12° W 19:01:55 10° WNW visible
28 Feb ? 16:38:59 10° SE 16:43:03 33° ENE 16:47:14 10° N visible
28 Feb ? 18:18:02 10° SSW 18:21:58 28° W 18:26:01 10° NW visible
29 Feb ? 17:39:37 10° S 17:44:08 67° WSW 17:48:50 10° NNW visible
01 Mar ? 17:02:04 10° SE 17:06:30 53° ENE 17:11:08 10° N visible
01 Mar ? 18:42:45 10° SW 18:45:48 18° W 18:48:56 10° NW visible
02 Mar ? 18:03:30 10° SSW 18:07:47 39° W 18:12:15 10° NNW visible
03 Mar ? 17:25:24 10° SSE 17:29:59 88° E 17:34:49 10° NNW visible
03 Mar ? 19:08:55 10° W 19:09:40 10° W 19:10:24 10° WNW visible
